GFSFLT2_925_thetae_087.txt.gz
Theta_e
301 300 300 299 298 300 297 297 297 297 297 298 299 299 299 299 300 302 304 307 309 311 317 317 318 317 317
300 298 298 298 298 297 296 293 293 293 293 294 295 296 296 296 298 299 301 304 307 308 308 313 314 314 314
298 298 297 296 296 295 294 292 292 291 290 290 291 292 293 292 294 297 299 300 301 303 306 307 307 308 308
298 297 296 295 294 293 291 290 290 289 288 288 288 288 289 287 287 289 294 297 297 298 300 301 302 303 305
297 295 294 292 291 289 289 287 286 287 286 286 286 286 286 286 287 287 286 290 295 296 296 297 298 298 299
295 294 292 290 288 287 286 286 286 286 285 285 285 285 286 286 288 289 287 286 287 291 294 295 296 296 296
294 292 290 288 287 286 286 285 284 285 285 284 285 285 285 286 288 288 288 289 289 286 286 286 288 291 292
287 287 287 287 286 286 285 285 285 285 285 284 284 285 284 286 287 287 287 287 288 288 289 289 289 289 288
284 285 285 284 284 284 284 285 284 284 284 284 284 284 284 285 285 285 286 287 287 287 287 288 288 289 289
284 283 283 284 283 282 283 284 284 284 284 284 283 283 283 285 285 284 284 285 285 285 285 285 286 286 287
283 282 282 283 283 283 283 283 283 284 283 283 282 282 281 282 282 283 283 284 284 283 284 284 284 285 285
283 282 282 283 283 283 283 283 283 282 283 282 282 281 280 280 280 282 282 282 282 283 282 283 282 282 283
283 282 282 283 283 283 283 283 282 281 281 280 280 280 280 279 279 280 280 281 281 281 282 281 282 282 282
282 282 282 283 283 283 283 282 281 282 281 280 280 280 280 280 280 280 280 280 281 281 281 282 282 282 282
281 281 282 283 283 283 282 282 282 282 281 281 281 280 280 280 280 280 281 281 281 281 281 282 283 283 282
281 281 281 281 282 282 282 282 282 282 281 281 281 280 280 280 280 280 280 280 281 281 280 280 281 282 282
282 281 281 281 281 281 281 281 281 281 281 281 280 279 277 277 280 280 280 281 280 280 280 280 280 280 281

GFSFLT2_925_thetae_090.txt.gz
Theta_e
303 301 300 300 300 299 297 298 297 296 297 298 298 298 298 297 298 299 302 307 309 313 317 315 316 318 318
301 299 299 298 297 297 297 295 294 294 294 294 294 295 294 294 296 299 299 304 306 308 312 317 318 317 317
300 298 297 296 296 295 295 293 292 292 291 291 292 293 291 291 292 295 297 299 301 305 307 309 310 312 312
298 297 296 295 294 294 293 292 291 290 288 288 288 289 288 287 287 288 292 296 297 300 302 305 306 307 307
297 295 294 293 293 292 291 290 287 287 286 286 286 286 286 286 288 287 287 291 295 296 298 299 300 302 303
296 295 294 293 291 289 287 286 286 286 286 285 285 285 286 287 289 290 290 288 289 292 294 295 296 297 298
295 294 294 292 289 287 286 285 285 284 285 284 285 285 285 287 288 288 289 289 290 289 288 288 291 293 294
288 290 288 288 287 286 285 285 284 284 285 284 284 284 284 286 287 287 288 288 289 289 289 289 289 289 288
286 286 286 286 286 285 285 285 284 284 284 285 284 284 284 285 285 285 286 286 287 287 287 287 288 289 289
284 284 284 286 283 283 283 284 284 284 284 284 283 283 284 285 284 284 284 284 285 285 285 285 286 286 287
284 283 283 283 283 283 283 283 283 284 284 284 283 282 282 282 283 284 284 284 284 284 284 284 285 285 286
283 282 282 283 283 283 283 283 283 283 283 283 283 282 281 281 281 282 282 283 283 283 283 283 283 282 283
284 283 282 282 283 283 283 283 282 281 281 281 281 280 280 280 280 280 281 281 281 282 282 282 282 282 283
283 282 282 282 282 283 283 283 282 281 281 281 280 280 280 280 280 280 281 280 281 282 281 282 282 282 283
282 282 281 282 282 283 283 283 282 281 281 281 281 281 280 280 280 281 281 281 281 281 281 281 283 283 283
283 281 281 282 282 282 283 282 282 282 282 281 281 281 280 280 280 280 280 280 281 281 281 281 282 282 282
283 282 281 281 281 281 281 282 281 281 281 281 281 280 277 279 280 280 280 281 280 280 281 281 280 280 281

GFSFLT2_925_thetae_096.txt.gz
Theta_e
307 306 303 302 301 300 300 299 299 298 298 298 298 298 297 296 296 297 299 302 305 308 313 316 316 317 318
303 303 301 300 300 299 299 297 295 296 295 296 295 295 294 293 294 295 298 299 303 307 311 315 316 315 315
302 301 300 299 297 297 296 294 293 294 292 292 294 292 291 289 288 289 295 298 300 305 306 314 318 319 319
301 299 298 297 296 296 295 294 292 292 291 290 289 288 288 287 288 287 290 296 297 300 305 306 313 314 315
299 297 296 294 295 295 294 292 290 289 288 287 287 287 287 289 291 291 290 293 296 297 300 304 306 308 311
297 297 296 296 295 294 294 293 293 288 287 287 286 287 287 288 290 290 291 291 292 295 296 298 299 303 305
296 296 296 296 294 293 292 291 290 286 286 287 286 286 286 289 289 289 290 291 291 290 292 295 295 297 298
291 294 293 294 292 292 290 288 286 285 285 288 285 286 285 287 287 289 289 289 289 290 289 289 291 293 293
287 288 289 289 288 287 287 287 288 287 285 287 285 285 285 286 286 287 288 287 287 288 288 288 288 288 288
288 287 287 286 286 286 287 289 288 287 286 287 285 285 288 285 285 285 285 285 285 285 285 286 287 288 289
285 285 286 286 284 283 283 284 285 287 285 285 284 284 285 286 284 284 284 284 284 284 284 285 285 286 287
285 285 285 285 284 283 283 283 283 283 284 284 284 284 285 286 286 283 283 283 283 283 283 284 284 284 284
286 285 285 284 283 283 283 283 283 283 283 283 282 282 282 284 285 284 284 283 282 282 282 282 283 283 283
286 286 283 282 283 283 283 283 284 283 282 282 282 281 283 283 283 284 283 284 282 282 282 282 282 283 283
285 285 284 283 284 283 284 284 285 285 284 282 282 281 281 281 283 283 283 283 282 282 281 282 282 283 283
285 285 284 283 284 283 284 284 285 285 284 283 282 282 282 283 281 283 283 283 283 282 281 282 283 283 283
284 284 283 283 284 284 284 284 284 285 284 283 282 283 285 286 284 281 283 283 282 282 282 282 283 283 283

GFSFLT2_925_thetae_102.txt.gz
Theta_e
308 307 304 304 304 304 302 302 301 300 300 298 298 298 296 294 291 293 295 298 301 303 306 307 313 316 317
307 305 303 302 302 301 300 299 299 298 298 297 296 296 293 291 289 288 290 296 299 301 306 309 315 316 316
304 303 303 302 300 300 299 298 297 297 297 294 295 293 291 290 291 289 291 295 297 299 304 305 315 315 316
303 302 302 300 299 299 297 297 296 295 294 293 291 290 288 290 290 292 292 294 296 297 302 306 305 315 316
301 300 299 298 297 297 297 296 296 294 292 290 290 288 288 289 289 291 293 293 295 296 299 303 305 308 314
299 299 298 298 298 297 296 293 293 292 291 289 288 287 287 288 289 291 291 292 293 294 296 299 303 305 310
297 297 297 298 298 296 295 294 293 291 288 287 287 287 287 289 289 290 291 290 290 290 292 296 299 301 304
296 296 297 297 297 297 295 294 291 289 287 288 287 287 287 287 288 289 289 289 289 289 288 291 295 297 299
289 293 295 295 295 295 293 292 288 287 285 287 286 286 285 287 286 287 287 287 286 288 288 288 289 290 294
287 288 289 292 292 292 292 290 288 286 287 287 287 286 286 285 286 286 286 286 285 285 286 288 289 289 289
288 288 288 287 288 288 289 287 289 289 287 286 286 285 288 287 285 285 285 286 286 285 285 285 286 288 288
287 287 288 286 285 285 286 286 288 286 286 285 286 286 286 286 287 285 284 284 285 285 286 285 285 285 286
286 286 286 286 285 284 284 284 284 284 284 285 284 285 285 287 286 285 285 285 284 284 284 284 284 284 284
287 286 286 286 286 284 283 283 283 283 283 283 283 283 283 282 284 284 284 284 284 283 283 283 283 283 284
287 286 286 285 285 284 283 283 284 284 283 282 282 282 282 283 283 283 283 284 284 284 283 283 283 283 284
287 287 286 285 283 285 284 284 284 286 285 284 282 282 282 283 282 282 284 284 284 284 284 283 283 284 285
287 286 286 285 284 284 284 284 284 285 286 285 283 282 280 278 285 284 282 283 284 284 283 282 283 284 284

GFSFLT2_925_thetae_105.txt.gz
Theta_e
309 307 306 305 305 304 304 303 302 301 301 300 299 297 296 294 292 290 293 296 298 301 303 305 306 312 315
307 306 305 304 303 302 302 301 300 300 299 298 297 296 295 293 293 290 291 294 297 299 302 306 310 315 316
306 305 304 303 301 301 300 299 298 298 297 297 296 295 292 291 292 291 292 294 295 298 301 306 310 316 316
304 303 302 301 300 299 298 298 297 296 295 294 293 292 290 291 289 290 293 294 296 298 300 305 305 311 316
301 301 300 299 298 298 298 297 297 295 293 292 291 290 288 288 289 290 292 293 294 295 297 304 305 306 314
299 299 299 299 299 298 297 294 293 294 292 291 289 288 287 288 290 291 291 291 291 292 295 301 304 306 312
299 298 299 298 297 297 296 295 295 293 291 289 288 287 287 289 289 290 290 290 290 290 292 296 301 304 307
298 298 297 297 297 298 297 295 293 293 289 287 287 286 287 287 288 289 289 289 288 289 290 293 296 300 303
294 296 296 296 296 296 295 293 289 289 288 287 287 286 286 286 287 287 287 286 286 289 288 289 292 295 299
288 289 291 294 295 295 296 293 289 286 287 286 286 286 285 285 286 286 286 286 285 286 287 288 289 289 291
287 287 288 291 292 292 292 293 291 288 287 285 287 285 288 286 285 286 286 286 285 285 285 286 288 288 289
288 287 287 287 288 288 288 288 288 289 287 286 286 285 286 286 286 285 284 285 285 285 285 285 285 286 287
288 287 288 287 285 285 285 286 287 287 285 286 285 286 286 286 286 285 284 285 284 284 284 284 284 285 285
288 287 286 287 285 284 284 284 284 284 284 284 284 284 284 284 285 284 284 284 283 283 283 283 283 284 284
287 286 286 286 286 285 284 283 283 283 283 283 283 282 282 282 282 283 283 284 284 284 283 283 283 283 284
287 287 286 286 285 285 283 283 283 284 283 282 282 282 282 282 283 283 283 284 284 284 284 284 284 284 284
286 286 286 286 285 284 284 284 284 284 285 284 282 282 281 281 285 284 282 283 283 283 283 283 283 284 284